[[{"header":{"parameterUnit":"m.s-1","parameterCategory":1,"la1":30.2991,"la2":30.254,"lo1":-89.0895,"lo2":-89.0444,"dy":0.0017,"dx":0.0017,"nx":28,"ny":28,"refTime":"2025-02-28T09:00:00:Z","depth":0,"parameterNumber":2,"parameterNumberName":"U-component_of_WINDS"},"data":[0,0,0,0,0,0,0,0,0,0,0,0,0,0,0,0,0,0,0,0,0,0,0,0,0,0,0,0,0,0,0,0,0,0,0,0,0,0,0,0,0,0,0,0,0,0,0,0,0,0,0,0,0,0,0,0,0,0,-0.9697,-0.9697,0,-0.9686,-0.9686,-0.9686,-0.9653,-0.9652,-0.9652,-0.9651,-0.9641,-0.9641,-0.9642,0,0,0,0,0,0,0,0,0,0,0,0,0,-0.9691,-0.9691,-0.9697,-0.9697,-0.9697,-0.9686,-0.9686,-0.9686,-0.9653,-0.9652,-0.9651,-0.9651,-0.9641,-0.9641,-0.9642,0,0,0,0,0,0,0,0,0,0,0,0,0,-0.9688,-0.9691,-0.9697,-0.9679,-0.9677,-0.9686,-0.9686,-0.9686,-0.9653,-0.9652,-0.9651,-0.965,-0.9641,-0.9641,-0.9642,-0.9668,0,0,-0.9644,-0.9644,0,0,0,0,0,0,0,0,-0.9689,-0.9689,-0.9682,-0.968,-0.9679,-0.967,-0.968,-0.968,-0.9654,-0.9663,-0.9651,-0.965,-0.9652,-0.9651,-0.9652,-0.9667,-0.9667,-0.9644,-0.9644,-0.9644,-0.9645,0,0,0,0,0,0,0,-0.9689,-0.9689,-0.9693,-0.9682,-0.968,-0.9672,-0.9671,-0.968,-0.9663,-0.9662,-0.9659,-0.9658,-0.965,-0.9651,-0.9651,-0.9666,-0.9644,-0.9644,-0.9645,-0.9645,-0.9704,-0.9705,0,0,0,0,0,0,-0.9691,-0.9689,-0.9693,-0.9693,-0.9681,-0.9673,-0.9671,-0.9674,-0.9663,-0.966,-0.9659,-0.9657,-0.9651,-0.965,-0.9651,-0.9681,-0.9644,-0.9645,-0.9645,-0.9703,-0.9704,-0.9706,0,0,0,0,0,0,-0.9691,-0.9692,-0.9694,-0.969,-0.969,-0.9674,-0.9677,-0.9674,-0.9675,-0.9661,-0.9658,-0.9663,-0.965,-0.965,-0.9664,-0.9681,-0.9645,-0.9646,-0.9701,-0.9703,-0.9705,-0.9742,0,0,0,0,0,0,-0.9691,-0.9692,-0.9701,-0.9691,-0.969,-0.9707,-0.9678,-0.9675,-0.9676,-0.9672,-0.9664,-0.9662,-0.9649,-0.9663,-0.9664,-0.9681,-0.9646,-0.97,-0.9702,-0.9704,-0.974,-0.9745,-0.975,0,0,0,0,0,-0.9691,-0.9712,-0.9702,-0.9703,-0.9701,-0.9708,-0.9707,-0.9692,-0.9677,-0.9687,-0.9678,-0.9662,-0.9678,-0.9665,-0.9666,-0.9683,-0.9699,-0.9702,-0.9704,-0.9737,-0.9744,-0.975,0,0,0,0,0,0,-0.9726,-0.9711,-0.9699,-0.9717,-0.9714,-0.9702,-0.9714,-0.97,-0.9701,-0.9698,-0.9679,-0.9677,-0.9694,-0.969,-0.9675,-0.9708,-0.9686,-0.9689,-0.9711,-0.9717,-0.9722,-0.9724,-0.9647,0,0,0,0,0,-0.9735,-0.9741,-0.9728,-0.9745,-0.9744,-0.9729,-0.9732,-0.972,-0.9716,-0.9715,-0.9707,-0.9704,-0.9709,-0.9712,-0.9715,-0.9738,-0.9737,-0.975,-0.9755,-0.976,-0.9763,-0.9777,-0.9783,-0.9714,-0.9714,-0.9714,0,0,-0.9756,-0.9748,-0.9753,-0.9752,-0.9748,-0.9756,-0.9728,-0.9737,-0.9743,-0.9716,-0.9729,-0.9724,-0.9719,-0.9738,-0.9746,-0.9735,-0.9782,-0.9763,-0.9767,-0.9768,-0.978,-0.9786,-0.9792,-0.9716,-0.9716,-0.9716,0,0,-0.9797,-0.9791,-0.9806,-0.9802,-0.9797,-0.9787,-0.979,-0.978,-0.9776,-0.9788,-0.9769,-0.9775,-0.9783,-0.9781,-0.9782,-0.9822,-0.9808,-0.9824,-0.9852,-0.9865,-0.987,-0.9875,-0.9891,-0.9897,-0.9827,-0.9827,-0.9827,0,-0.9823,-0.9833,-0.9815,-0.9825,-0.9826,-0.9801,-0.9817,-0.9814,-0.9811,-0.9812,-0.9799,-0.9809,-0.9804,-0.9823,-0.9833,-0.9833,-0.9838,-0.9826,-0.9871,-0.9875,-0.988,-0.9895,-0.9901,-0.9829,-0.9829,-0.9829,-0.9828,0,-0.9866,-0.9874,-0.9886,-0.9883,-0.9885,-0.9897,-0.9882,-0.9886,-0.9874,-0.9866,-0.988,-0.9873,-0.9875,-0.9879,-0.9867,-0.9896,-0.989,-0.9874,-0.9852,-0.9889,-0.9903,-0.9908,-0.9832,-0.9831,-0.9831,-0.983,0,0,-0.993,-0.9916,-0.9922,-0.992,-0.9912,-0.9918,-0.993,-0.9932,-0.9937,-0.9934,-0.9945,-0.9952,-0.9938,-0.9938,-0.9926,-0.9937,-0.9972,-0.992,-0.992,-0.9932,-1.0006,-1.002,-1.0027,-0.9962,-0.9963,-0.9964,-1.0007,0,-0.997,-0.999,-0.9974,-0.9997,-1.0004,-0.9981,-0.9992,-0.9988,-0.9981,-0.9986,-0.9978,-0.9984,-0.9964,-0.9964,-0.9974,-0.9966,-0.9987,-0.9962,-0.9973,-0.9974,-0.9977,-1.0034,-1.0048,-1.0089,-1.0012,-1.0013,-1.0014,0,-1.002,-1.0021,-1.0044,-1.0036,-1.0038,-1.0048,-1.0049,-1.0054,-1.005,-1.0044,-1.0045,-1.003,-1.0042,-1.0019,-1.0036,-1.0019,-1.0022,-1.0019,-1.002,-1.0022,-0.9998,-1.0039,-1.0102,-1.0109,-1.0022,-1.0022,-1.0021,0,-1.0067,-1.0073,-1.0088,-1.0088,-1.0078,-1.0085,-1.0082,-1.0076,-1.0079,-1.008,-1.0082,-1.0084,-1.0086,-1.0088,-1.0075,-1.0059,-1.0094,-1.007,-1.0091,-1.0091,-1.0101,-1.0101,-1.0167,-1.01,-1.0099,-1.0099,-1.0099,0,-1.0115,-1.0131,-1.0109,-1.0119,-1.0136,-1.0118,-1.0136,-1.013,-1.0125,-1.0134,-1.0113,-1.0122,-1.0103,-1.011,-1.0099,-1.0116,-1.0116,-1.0113,-1.011,-1.0116,-1.0117,-1.0119,-1.0117,-1.0101,-1.0101,-1.01,-1.01,0,-1.017,-1.0156,-1.0172,-1.0161,-1.0159,-1.0172,-1.0163,-1.0172,-1.0163,-1.0174,-1.0176,-1.0162,-1.0169,-1.0155,-1.0161,-1.0154,-1.0178,-1.017,-1.0179,-1.0178,-1.0201,-1.0199,-1.0272,-1.0282,-1.0206,-1.0207,-1.0208,0,-1.0203,-1.0215,-1.0205,-1.0209,-1.0207,-1.0214,-1.0216,-1.0199,-1.0202,-1.0199,-1.0209,-1.0214,-1.0218,-1.023,-1.0221,-1.0225,-1.0218,-1.0244,-1.0219,-1.0225,-1.0221,-1.0222,-1.0224,-1.0249,-1.025,-1.0251,-1.0252,0,-1.0263,-1.0256,-1.026,-1.0262,-1.0266,-1.0266,-1.0266,-1.0271,-1.0252,-1.0257,-1.0264,-1.0267,-1.0272,-1.0279,-1.0281,-1.0278,-1.0263,-1.0259,-1.0265,-1.0272,-1.0278,-1.0277,-1.0196,-1.0258,-1.0257,-1.0257,-1.0257,-1.0256,-1.0309,-1.0319,-1.0314,-1.032,-1.0318,-1.0318,-1.0326,-1.0318,-1.0324,-1.0327,-1.0316,-1.0326,-1.0322,-1.0324,-1.0322,-1.033,-1.0319,-1.0326,-1.0329,-1.0331,-1.0336,-1.0275,-1.033,-1.033,-1.033,-1.0329,-1.0329,0,-1.037,-1.0366,-1.0371,-1.0371,-1.0376,-1.036,-1.0358,-1.0364,-1.0373,-1.0371,-1.0375,-1.0384,-1.0389,-1.0381,-1.0385,-1.0394,-1.0387,-1.0396,-1.0396,-1.0396,-1.0345,-1.034,-1.0401,-1.0401,-1.0401,-1.0401,-1.0401,-1.0401,-1.0402,-1.0419,-1.0411,-1.0427,-1.0422,-1.0432,-1.0433,-1.0433,-1.0431,-1.0442,-1.0447,-1.0441,-1.0436,-1.0441,-1.0446,-1.0443,-1.0447,-1.0459,-1.0454,-1.0406,-1.0399,-1.0393,-1.0389,-1.0459,-1.0459,-1.0505,-1.0505,-1.0505]},{"header":{"parameterUnit":"m.s-1","parameterCategory":1,"la1":30.2991,"la2":30.254,"lo1":-89.0895,"lo2":-89.0444,"dy":0.0017,"dx":0.0017,"nx":28,"ny":28,"refTime":"2025-02-28T09:00:00:Z","depth":0,"parameterNumber":3,"parameterNumberName":"V-component_of_WINDS"},"data":[0,0,0,0,0,0,0,0,0,0,0,0,0,0,0,0,0,0,0,0,0,0,0,0,0,0,0,0,0,0,0,0,0,0,0,0,0,0,0,0,0,0,0,0,0,0,0,0,0,0,0,0,0,0,0,0,0,0,-0.871,-0.871,0,-0.8717,-0.8717,-0.8717,-0.8693,-0.8693,-0.8692,-0.8691,-0.8697,-0.8698,-0.8699,0,0,0,0,0,0,0,0,0,0,0,0,0,-0.8675,-0.8676,-0.871,-0.871,-0.871,-0.8717,-0.8717,-0.8717,-0.8693,-0.8693,-0.8692,-0.8691,-0.8697,-0.8698,-0.8699,0,0,0,0,0,0,0,0,0,0,0,0,0,-0.8687,-0.8676,-0.871,-0.8699,-0.8698,-0.8717,-0.8717,-0.8717,-0.8694,-0.8693,-0.8691,-0.869,-0.8697,-0.8698,-0.8699,-0.8728,0,0,-0.8703,-0.8703,0,0,0,0,0,0,0,0,-0.8687,-0.8688,-0.8701,-0.87,-0.8699,-0.8703,-0.8707,-0.8721,-0.8694,-0.8695,-0.8691,-0.869,-0.87,-0.8701,-0.8705,-0.8728,-0.8729,-0.8703,-0.8704,-0.8704,-0.8705,0,0,0,0,0,0,0,-0.8686,-0.8688,-0.8713,-0.8701,-0.87,-0.8694,-0.8694,-0.8709,-0.8704,-0.8695,-0.8693,-0.8695,-0.8699,-0.8703,-0.8705,-0.8729,-0.8703,-0.8704,-0.8705,-0.8705,-0.8776,-0.8777,0,0,0,0,0,0,-0.8687,-0.8688,-0.8712,-0.8713,-0.869,-0.8695,-0.8696,-0.8703,-0.8703,-0.8702,-0.8696,-0.8693,-0.8702,-0.8703,-0.8705,-0.8739,-0.8704,-0.8705,-0.8706,-0.8775,-0.8777,-0.8778,0,0,0,0,0,0,-0.8686,-0.8689,-0.8712,-0.87,-0.8702,-0.8697,-0.8705,-0.8704,-0.8708,-0.8704,-0.8702,-0.8701,-0.8701,-0.8703,-0.8722,-0.8738,-0.8706,-0.8707,-0.8774,-0.8776,-0.8777,-0.8807,0,0,0,0,0,0,-0.8685,-0.8689,-0.87,-0.87,-0.8703,-0.873,-0.8706,-0.8704,-0.871,-0.8707,-0.8708,-0.8707,-0.87,-0.8721,-0.8724,-0.874,-0.8708,-0.8772,-0.8775,-0.8777,-0.8804,-0.8809,-0.8813,0,0,0,0,0,-0.8684,-0.8708,-0.8701,-0.8704,-0.8717,-0.8731,-0.8733,-0.8724,-0.8711,-0.8722,-0.872,-0.8707,-0.8736,-0.8723,-0.8726,-0.8743,-0.8771,-0.8774,-0.8777,-0.8802,-0.8808,-0.8813,0,0,0,0,0,0,-0.8709,-0.8708,-0.87,-0.8725,-0.8728,-0.8727,-0.8741,-0.8731,-0.8738,-0.8736,-0.8725,-0.8725,-0.8747,-0.8746,-0.8732,-0.877,-0.8751,-0.8755,-0.877,-0.8776,-0.878,-0.878,-0.8709,0,0,0,0,0,-0.8718,-0.873,-0.8728,-0.875,-0.8752,-0.8746,-0.8752,-0.8745,-0.8749,-0.875,-0.8749,-0.8752,-0.8762,-0.8769,-0.8777,-0.8804,-0.8804,-0.8817,-0.8821,-0.8825,-0.8828,-0.8842,-0.8848,-0.8786,-0.8786,-0.8786,0,0,-0.8736,-0.8736,-0.8745,-0.8755,-0.8757,-0.877,-0.8748,-0.8762,-0.8771,-0.8752,-0.8771,-0.877,-0.8773,-0.8796,-0.8806,-0.8797,-0.8845,-0.8828,-0.8831,-0.8833,-0.8846,-0.8851,-0.8857,-0.8788,-0.8788,-0.8788,0,0,-0.8775,-0.8776,-0.8795,-0.8798,-0.8801,-0.8797,-0.8801,-0.8802,-0.8801,-0.8819,-0.8805,-0.8816,-0.8833,-0.8836,-0.8839,-0.8879,-0.8868,-0.8882,-0.8906,-0.892,-0.8925,-0.8929,-0.8943,-0.8949,-0.8885,-0.8885,-0.8885,0,-0.8796,-0.8815,-0.8806,-0.8821,-0.8826,-0.881,-0.8828,-0.8831,-0.8837,-0.8841,-0.883,-0.8851,-0.8852,-0.8876,-0.8885,-0.8889,-0.8893,-0.8882,-0.8925,-0.8929,-0.8933,-0.8947,-0.8952,-0.8887,-0.8887,-0.8887,-0.8886,0,-0.8842,-0.8855,-0.8869,-0.8876,-0.8882,-0.8899,-0.8892,-0.89,-0.8893,-0.889,-0.8908,-0.8909,-0.8918,-0.8922,-0.8915,-0.8945,-0.8939,-0.8927,-0.8908,-0.8941,-0.8953,-0.8958,-0.8889,-0.8889,-0.8888,-0.8888,0,0,-0.8897,-0.8898,-0.8904,-0.8907,-0.8909,-0.8919,-0.8935,-0.8944,-0.8951,-0.8955,-0.8968,-0.8983,-0.8972,-0.8976,-0.8969,-0.8981,-0.9012,-0.8967,-0.8967,-0.8976,-0.9046,-0.9055,-0.9061,-0.9005,-0.9006,-0.9007,-0.9045,0,-0.8936,-0.8963,-0.8955,-0.8983,-0.8995,-0.898,-0.8993,-0.8996,-0.8994,-0.9003,-0.9,-0.9011,-0.8995,-0.8998,-0.9009,-0.9006,-0.9026,-0.9003,-0.9017,-0.9018,-0.9017,-0.9068,-0.9078,-0.9114,-0.905,-0.9051,-0.9052,0,-0.8984,-0.8991,-0.902,-0.9021,-0.9025,-0.9038,-0.9045,-0.9055,-0.9058,-0.9055,-0.906,-0.905,-0.9065,-0.9046,-0.9067,-0.9051,-0.9056,-0.9056,-0.9057,-0.9058,-0.9037,-0.9071,-0.9126,-0.9131,-0.9059,-0.9059,-0.9058,0,-0.9022,-0.9039,-0.9058,-0.9061,-0.9062,-0.9071,-0.9072,-0.9074,-0.908,-0.9086,-0.909,-0.9097,-0.9102,-0.9108,-0.9101,-0.9087,-0.9123,-0.9103,-0.9121,-0.9121,-0.9129,-0.9129,-0.9187,-0.9132,-0.9132,-0.9132,-0.9132,0,-0.9066,-0.9085,-0.9075,-0.9087,-0.9107,-0.9098,-0.9118,-0.9117,-0.9119,-0.913,-0.9117,-0.9128,-0.9117,-0.9127,-0.9121,-0.914,-0.9142,-0.914,-0.9138,-0.9141,-0.9142,-0.9145,-0.9142,-0.9134,-0.9133,-0.9133,-0.9133,0,-0.9112,-0.9107,-0.9127,-0.9126,-0.9127,-0.9141,-0.9141,-0.9152,-0.9148,-0.9163,-0.9166,-0.916,-0.9171,-0.9164,-0.9175,-0.9171,-0.9195,-0.919,-0.9195,-0.9193,-0.9212,-0.9211,-0.9274,-0.9282,-0.9222,-0.9223,-0.9223,0,-0.9141,-0.9155,-0.9156,-0.9162,-0.9164,-0.9175,-0.9181,-0.9172,-0.9179,-0.9183,-0.9193,-0.9203,-0.9211,-0.9229,-0.9226,-0.9234,-0.9229,-0.925,-0.923,-0.9233,-0.9229,-0.9229,-0.923,-0.9255,-0.9255,-0.9256,-0.9256,0,-0.9192,-0.9189,-0.9198,-0.9206,-0.9214,-0.922,-0.9224,-0.9231,-0.9221,-0.9229,-0.9241,-0.9246,-0.9258,-0.9268,-0.9275,-0.9275,-0.9264,-0.9263,-0.9267,-0.9271,-0.9273,-0.9272,-0.9206,-0.9261,-0.9261,-0.9261,-0.926,-0.926,-0.9231,-0.9242,-0.9245,-0.9255,-0.9258,-0.9263,-0.9273,-0.9271,-0.928,-0.9289,-0.9283,-0.9296,-0.9298,-0.9307,-0.9308,-0.9318,-0.931,-0.9317,-0.9318,-0.932,-0.9323,-0.9271,-0.932,-0.9319,-0.9319,-0.9319,-0.9319,0,-0.9282,-0.9283,-0.9292,-0.93,-0.9308,-0.9297,-0.9302,-0.9309,-0.9321,-0.9324,-0.9332,-0.9345,-0.9354,-0.9352,-0.936,-0.9369,-0.9364,-0.9371,-0.9371,-0.9371,-0.933,-0.9325,-0.9375,-0.9375,-0.9375,-0.9375,-0.9375,-0.9375,-0.9309,-0.9328,-0.9325,-0.9346,-0.9346,-0.9359,-0.9363,-0.9367,-0.937,-0.9385,-0.9392,-0.9391,-0.9392,-0.94,-0.9408,-0.9407,-0.9411,-0.942,-0.9418,-0.9379,-0.9374,-0.9369,-0.9364,-0.9421,-0.9421,-0.9458,-0.9458,-0.9458]}]]